Hourly Weather Roundup
Issued by NWS Central Illinois

Home | Current Version | Previous Version | Text Only | Print | Product List | Glossary On
Versions: 1 2 3 4 5 6 7 8 9 10 11 12 13 14 15 16 17 18 19 20 21 22 23 24 25 26 27 28 29 30 31 32 33 34 35 36 37 38 39 40 41 42 43 44 45 46 47 48 49 50
996
NZUS43 KILX 220410
HWRILX

AREA WEATHER ROUNDUP
NATIONAL WEATHER SERVICE, LINCOLN IL
1100 PM CDT THU MAY 21 2015


CITY           SKY/WX    TMP DP  RH WIND       PRES   REMARKS
BLOOMINGTON    CLEAR     57  44  62 SW12      30.12S
CHAMPAIGN      CLEAR     54  41  61 SW12      30.13S
DANVILLE       CLEAR     51  41  67 SW6       30.10S
DECATUR        CLEAR     53  44  71 SW8       30.14S
EFFINGHAM      CLEAR     51  41  69 S3        30.18F
FLORA          CLEAR     48  43  82 SW6       30.19S
GALESBURG      CLEAR     57  47  69 SW12      30.08S
JACKSONVILLE   CLEAR     59  46  61 SW8       30.14S
LACON          PTCLDY    56  45  65 SW5       30.07S
LAWRENCEVILLE  NOT AVBL
LITCHFIELD     CLEAR     51  46  82 SW5       30.17S
$$


CITY           SKY/WX    TMP DP  RH WIND       PRES   REMARKS
LINCOLN        CLEAR     58  43  56 CALM      30.12S
MACOMB         PTCLDY    59  47  66 SW9       30.12S
MATTOON        CLEAR     54  42  64 SW7       30.14S
MT CARMEL AP   CLEAR     54  43  66 W6        30.18F
OLNEY-NOBLE AP CLEAR     50  43  76 CALM      30.18F
PARIS          CLEAR     52  42  68 SW9       30.15S
PEORIA         CLEAR     57  46  66 SW8       30.10S
PONTIAC        CLEAR     60  43  53 SW13      30.09S
RANTOUL        CLEAR     56  40  54 SW9       30.11F
ROBINSON       CLEAR     51  44  78 SW7       30.18S
SPRINGFIELD    CLEAR     58  43  57 SW7       30.14S
TAYLORVILLE    CLEAR     54  45  71 SW7       30.15S
$$

...REGIONAL REPORTS...


CITY           SKY/WX    TMP DP  RH WIND       PRES   REMARKS
CHICAGO O`HARE CLEAR     59  38  45 SW6       30.02S
KANKAKEE       CLEAR     54  40  60 SW7       30.07S
MOLINE         CLEAR     61  44  53 SW8       30.04R
MOUNT VERNON   CLEAR     45  39  81 CALM      30.20F
PITTSFIELD     CLEAR     58  47  65 SW7       30.16S
QUINCY         CLEAR     56  46  69 SW7       30.14R
ROCKFORD       CLEAR     60  40  47 SW9       30.04S
$$


CITY           SKY/WX    TMP DP  RH WIND       PRES   REMARKS
BURLINGTON     PTCLDY    57  49  74 SW8       30.08S
CEDAR RAPIDS   CLEAR     55  35  47 NW7       30.06R
DES MOINES     CLEAR     61  41  47 NW5       30.12R
KIRKSVILLE     CLEAR     56  47  71 SW6       30.16R
OTTUMWA        CLEAR     59  45  59 W9        30.10R
ST LOUIS       CLEAR     57  42  57 CALM      30.18S
$$


CITY           SKY/WX    TMP DP  RH WIND       PRES   REMARKS
TERRE HAUTE    CLEAR     51  43  74 SW8       30.15S
EVANSVILLE     CLEAR     49  45  86 W3        30.20S
INDIANAPOLIS   CLEAR     51  41  68 SW9       30.11S
LAFAYETTE      CLEAR     50  41  71 W3        30.10R
MADISON        PTCLDY    60  43  53 NW6       30.01R
MILWAUKEE      LGT RAIN  53  42  66 VRB3      30.04R
$$





USA.gov is the U.S. government's official web portal to all federal, state and local government web resources and services.